Regional Weather Roundup
Issued by NWS

Home | Current Version | Previous Version | Graphics & Text | Print | Product List | Glossary On
Versions: 1 2 3 4 5 6 7 8 9 10 11 12 13 14 15 16 17 18 19 20 21 22 23 24 25 26 27 28 29 30 31 32 33 34 35 36 37 38 39 40 41 42 43 44 45 46 47 48 49 50
000
ASUS45 KPSR 151800
RWRAZ

PRELIMINARY ARIZONA REGIONAL HOURLY WEATHER ROUNDUP
NATIONAL WEATHER SERVICE PHOENIX AZ
1100 AM MST MON SEP 15 2014

NOTE: FAIR INDICATES FEW OR NO CLOUDS BELOW 12,000 FEET WITH NO
SIGNIFICANT WEATHER AND/OR OBSTRUCTIONS TO VISIBILITY.

AZZ001>003-036-151900-
NORTHWEST ARIZONA

CITY           SKY/WX    TMP DP  RH WIND       PRES   REMARKS
KINGMAN        SUNNY     90  49  24 CALM      30.06S
6HR MIN TEMP:  70; 6HR MAX TEMP:  90;

$$

AZZ004>008-015-016-018-151900-
NORTH CENTRAL ARIZONA

CITY           SKY/WX    TMP DP  RH WIND       PRES   REMARKS
GRAND CANYON   SUNNY     78  46  32 VRB5      30.30S
6HR MIN TEMP:  46; 6HR MAX TEMP:  80;

PRESCOTT       MOSUNNY   80  54  40 VRB3      30.19S
6HR MIN TEMP:  58; 6HR MAX TEMP:  81;

FLAGSTAFF      SUNNY     75  45  34 E8        30.33S
6HR MIN TEMP:  48; 6HR MAX TEMP:  75;

PAYSON         SUNNY     81  54  39 VRB3      30.21F
PAGE           SUNNY     84  42  22 N5        30.15S
6HR MIN TEMP:  69; 6HR MAX TEMP:  84;

$$

AZZ009>014-017-151900-
NORTHEAST ARIZONA

CITY           SKY/WX    TMP DP  RH WIND       PRES   REMARKS
WINSLOW        NOT AVBL
SAINT JOHNS    SUNNY     80  51  36 MISG      30.23F
6HR MIN TEMP:  52; 6HR MAX TEMP:  80;

SHOW LOW       SUNNY     75  48  38 E8        30.30F
$$

AZZ023-151900-
GREATER PHOENIX AREA

CITY           SKY/WX    TMP DP  RH WIND       PRES   REMARKS
PHOENIX        MOSUNNY   97  59  28 E8        29.87F
6HR MIN TEMP:  87; 6HR MAX TEMP:  98;

DEER VALLEY    SUNNY     95  57  27 NE6       29.90S
6HR MIN TEMP:  82; 6HR MAX TEMP:  95;

SCOTTSDALE     SUNNY     95  58  28 SE6       29.91F
6HR MIN TEMP:  84; 6HR MAX TEMP:  96;

MESA-FALCON    SUNNY     97  57  26 SE6       29.89F
MESA-GATEWAY   SUNNY     97  59  28 SE12      29.91F
CHANDLER       MOSUNNY   95  61  31 E12       29.89F
$$

AZZ027-028-151900-
SOUTHWEST MARICOPA COUNTY AND PINAL COUNTY

CITY           SKY/WX    TMP DP  RH WIND       PRES   REMARKS
CASA GRANDE    SUNNY     95  59  30 CALM      29.91S
6HR MIN TEMP:  84; 6HR MAX TEMP:  95;

GILA BEND      CLEAR    100  55  22 E12G21    29.84F
$$

AZZ503-504-507>509-151900-
SOUTHEAST ARIZONA

CITY           SKY/WX    TMP DP  RH WIND       PRES   REMARKS
TUCSON         SUNNY     93  57  29 SE14      30.00S
6HR MIN TEMP:  79; 6HR MAX TEMP:  93;

RYAN FIELD       N/A     93  59  31 E13       29.98S
NOGALES        SUNNY     87  60  40 CALM      30.08S
6HR MIN TEMP:  64; 6HR MAX TEMP:  87;

SIERRA VISTA   MOSUNNY   79  57  47 SE8       30.16S
SAFFORD        SUNNY     83  57  41 S12       30.07F
6HR MIN TEMP:  71; 6HR MAX TEMP:  84;

$$

AZZ020-021-025-026-031-151900-
SOUTHWEST ARIZONA

CITY           SKY/WX    TMP DP  RH WIND       PRES   REMARKS
YUMA           SUNNY    104  55  19 E8        29.78R HX 102
6HR MIN TEMP:  88; 6HR MAX TEMP: 104;

$$

CAZ031-033-041-043-047-048-061-151900-
SOUTHERN CALIFORNIA

CITY           SKY/WX    TMP DP  RH WIND       PRES   REMARKS
DOWNTOWN L.A.  SUNNY     91  65  41 VRB3      29.79F
6HR MIN TEMP:  73; 6HR MAX TEMP:  91;

L.A. AIRPORT   MOSUNNY   81  66  60 W9        29.82R
6HR MIN TEMP:  72; 6HR MAX TEMP:  82;

SAN DIEGO      MOSUNNY   84  68  58 NW8       29.80F
6HR MIN TEMP:  74; 6HR MAX TEMP:  84;

BURBANK        SUNNY     96  52  22 VRB3      29.83S
6HR MIN TEMP:  76; 6HR MAX TEMP:  96;

ONTARIO        MOSUNNY   97  50  20 CALM      29.84S
6HR MIN TEMP:  78; 6HR MAX TEMP:  97;

RIVERSIDE      SUNNY     97  55  24 W5        29.82F
6HR MIN TEMP:  74; 6HR MAX TEMP:  97;

PALM SPRINGS   SUNNY    105  52  17 CALM      29.81S HX 103
6HR MIN TEMP:  86; 6HR MAX TEMP: 106;

EL CENTRO NAS  SUNNY    101  58  24 VRB5      29.76S HX 100
6HR MIN TEMP:  83; 6HR MAX TEMP: 101;

IMPERIAL       SUNNY    101  64  29 SE5       29.76S HX 104
6HR MIN TEMP:  82; 6HR MAX TEMP: 101;

BLYTHE         SUNNY    101  58  24 E8        29.81S HX 100
6HR MIN TEMP:  83; 6HR MAX TEMP: 102;

$$

NVZ020-UTZ003-151900-
SOUTHERN NEVADA-UTAH

CITY           SKY/WX    TMP DP  RH WIND       PRES   REMARKS
LAS VEGAS      NOT AVBL
SALT LAKE CITY MOSUNNY   79  42  26 CALM      30.11S
6HR MIN TEMP:  64; 6HR MAX TEMP:  79;

$$

NMZ009-TXZ055-151900-
NEW MEXICO-WEST TEXAS

CITY           SKY/WX    TMP DP  RH WIND       PRES   REMARKS
ALBUQUERQUE    MOSUNNY   74  55  51 VRB5      30.26F
6HR MIN TEMP:  62; 6HR MAX TEMP:  75;

EL PASO        PTSUNNY   74  59  59 E3        30.17F
6HR MIN TEMP:  65; 6HR MAX TEMP:  75;

$$


........................KEY........................
SKY/WX - SKY CONDITION/WEATHER
TMP    - TEMPERATURE IN FAHRENHEIT
DP     - DEW POINT IN FAHRENHEIT
RH     - RELATIVE HUMIDITY IN PERCENT
WIND   - DIRECTION AND SPEED IN MILES PER HOUR (MPH)
VRB    - VARIABLE WIND DIRECTION
PRES   - MEAN SEA LEVEL PRESSURE IN INCHES OF MERCURY
         F - FALLING PRESSURE   R - RISING PRESSURE
         S - STEADY PRESSURE
VSB    - VISIBILITY IN MILES
HX     - HEAT INDEX IN FAHRENHEIT
WCI    - WIND CHILL INDEX IN FAHRENHEIT
TC     - TEMPERATURE IN CELSIUS WHICH IS ALSO KNOWN AS
         TEMPERATURE IN CENTIGRADE
AFB    - AIR FORCE BASE
         LUKE AFB IS LUKE AIR FORCE BASE
         DAVIS-MONTHAN IS DAVIS-MONTHAN AIR FORCE BASE
NAS    - NAVAL AIR STATION
         EL CENTRO NAS IS EL CENTRO NAVAL AIR STATION
N/A    - NOT AVAILABLE



USA.gov is the U.S. government's official web portal to all federal, state and local government web resources and services.